FW0486 Weather Reports


time (UTC)temp
F
wind
direction
speed
knots
gust
knots
rain 1hr
in
rain 24hr
in
rain mn
in
humidity
%
barometer
mb
20260507203031 82 210 0.0 4.3 0.00 0.00 0.00 16 1008.8
20260507201516 81 153 0.0 5.2 0.00 0.00 0.00 16 1009.1
20260507200024 81 104 0.0 0.0 0.00 0.00 0.00 16 1009.4
20260507194510 79 157 0.0 0.0 0.00 0.00 0.00 17 1009.9
20260507193029 80 307 0.0 0.9 0.00 0.00 0.00 17 1010.2
20260507191504 80 79 0.0 0.0 0.00 0.00 0.00 18 1010.4
20260507190004 79 342 0.0 0.0 0.00 0.00 0.00 18 1010.5
20260507184559 77 56 0.0 0.0 0.00 0.00 0.00 20 1010.8
20260507183058 75 29 0.0 0.0 0.00 0.00 0.00 20 1011.1
20260507181551 74 30 0.0 6.1 0.00 0.00 0.00 20 1011.5
20260507180049 73 333 0.0 0.9 0.00 0.00 0.00 22 1011.8
20260507174555 72 309 0.0 5.2 0.00 0.00 0.00 22 1012.0
20260507173042 72 335 0.0 7.0 0.00 0.00 0.00 22 1012.1
20260507171547 71 24 0.9 7.8 0.00 0.00 0.00 22 1012.4
20260507170044 70 340 0.9 8.7 0.00 0.00 0.00 23 1012.8
20260507164537 70 65 0.9 9.6 0.00 0.00 0.00 23 1012.7
20260507163036 69 335 0.9 12.2 0.00 0.00 0.00 24 1013.0
20260507161539 67 31 1.7 13.0 0.00 0.00 0.00 25 1013.0
20260507160037 66 333 3.5 13.0 0.00 0.00 0.00 27 1013.3
20260507154530 65 327 4.3 12.2 0.00 0.00 0.00 29 1013.4
20260507153028 65 340 2.6 14.8 0.00 0.00 0.00 30 1013.5
20260507151527 63 56 2.6 17.4 0.00 0.00 0.00 31 1013.7
20260507150023 63 328 6.1 14.8 0.00 0.00 0.00 32 1013.9
20260507144527 62 359 1.7 15.6 0.00 0.00 0.00 35 1014.0
20260507143018 61 16 4.3 15.6 0.00 0.00 0.00 37 1014.0
20260507141515 60 352 6.1 14.8 0.00 0.00 0.00 38 1014.0
20260507140013 60 339 2.6 13.0 0.00 0.00 0.00 40 1014.2
20260507134510 59 323 3.5 13.0 0.00 0.00 0.00 41 1014.1
20260507133008 58 334 1.7 10.4 0.00 0.00 0.00 43 1014.1
20260507131518 57 358 0.9 7.8 0.00 0.00 0.00 43 1014.0
20260507130005 56 333 0.9 6.1 0.00 0.00 0.00 45 1014.0
20260507124505 55 347 0.0 1.7 0.00 0.00 0.00 45 1013.9
20260507123003 55 330 0.9 6.1 0.00 0.00 0.00 46 1013.7
20260507121502 54 323 0.0 0.0 0.00 0.00 0.00 46 1013.7
20260507114603 55 324 0.0 0.9 0.00 0.00 0.00 46 1013.5
20260507113058 55 314 0.0 5.2 0.00 0.00 0.00 45 1013.3
20260507111558 56 323 0.9 9.6 0.00 0.00 0.00 46 1013.2
20260507110057 56 330 0.9 5.2 0.00 0.00 0.00 46 1013.2
20260507104556 56 347 0.0 0.9 0.00 0.00 0.00 44 1013.3
20260507103100 57 343 0.0 1.7 0.00 0.00 0.00 44 1013.2
20260507101600 57 315 0.0 6.1 0.00 0.00 0.00 44 1013.2
20260507094553 56 321 0.0 0.9 0.00 0.00 0.00 44 1013.2
20260507093056 54 6 0.0 0.0 0.00 0.00 0.00 47 1013.1
20260507091550 54 42 0.0 0.0 0.00 0.00 0.00 44 1013.3
20260507090050 55 298 0.0 0.0 0.00 0.00 0.00 45 1013.3
20260507084550 50 156 0.0 0.0 0.00 0.00 0.00 38 1013.4
20260507083058 50 217 0.0 0.0 0.00 0.00 0.00 39 1013.3
20260507081547 51 143 0.0 0.0 0.00 0.00 0.00 39 1013.5
20260507080042 53 15 0.0 0.0 0.00 0.00 0.00 37 1013.3
20260507074540 52 172 0.0 0.0 0.00 0.00 0.00 38 1013.3
20260507073049 52 173 0.0 0.0 0.00 0.00 0.00 38 1013.2
20260507071536 54 162 0.0 0.0 0.00 0.00 0.00 37 1013.0
20260507070038 58 300 0.0 0.0 0.00 0.00 0.00 32 1012.8
20260507064535 55 311 0.0 0.0 0.00 0.00 0.00 38 1012.8
20260507063031 55 324 0.0 0.0 0.00 0.00 0.00 29 1012.6
20260507061526 54 73 0.0 0.0 0.00 0.00 0.00 31 1012.4
20260507060026 54 55 0.0 0.0 0.00 0.00 0.00 27 1012.2
20260507054525 56 302 0.0 0.0 0.00 0.00 0.00 26 1012.2
20260507053020 57 306 0.0 0.0 0.00 0.00 0.00 25 1012.2
20260507051518 59 321 0.0 0.0 0.00 0.00 0.00 25 1012.0
20260507050026 59 31 0.0 0.0 0.00 0.00 0.00 25 1011.9
20260507044515 61 181 0.0 0.0 0.00 0.00 0.00 23 1011.8
20260507043013 63 176 0.0 0.0 0.00 0.00 0.00 20 1011.4
20260507041526 65 172 0.0 0.0 0.00 0.00 0.00 19 1011.3
20260507040010 64 123 0.0 0.0 0.00 0.00 0.00 19 1011.0
20260507034516 65 101 0.0 0.0 0.00 0.00 0.00 20 1010.7
20260507033010 67 80 0.0 0.0 0.00 0.00 0.00 17 1010.2
20260507031511 69 229 0.0 1.7 0.00 0.00 0.00 16 1009.8
20260507030013 69 221 0.0 7.8 0.00 0.00 0.00 16 1009.5
20260507024509 70 248 0.0 6.1 0.00 0.00 0.00 16 1009.2
20260507023007 71 211 0.9 8.7 0.00 0.00 0.00 15 1008.9
20260507021507 71 235 2.6 14.8 0.00 0.00 0.00 15 1008.5
20260507020007 72 214 0.9 10.4 0.00 0.00 0.00 15 1008.2
20260507014511 74 219 1.7 13.9 0.00 0.00 0.00 14 1007.9
20260507013005 76 213 0.0 13.0 0.00 0.00 0.00 13 1007.8
20260507011504 79 210 0.0 5.2 0.00 0.00 0.00 11 1007.6
20260507010003 80 214 0.0 3.5 0.00 0.00 0.00 11 1007.5
20260507004505 80 203 3.5 12.2 0.00 0.00 0.00 12 1007.3
20260507003002 80 230 0.0 11.3 0.00 0.00 0.00 9 1007.2
20260507001501 81 259 0.0 3.5 0.00 0.00 0.00 7 1007.1
20260507000100 81 198 0.0 4.3 0.00 0.00 0.00 8 1007.0
20260506234605 80 238 0.9 5.2 0.00 0.00 0.00 8 1006.9
20260506233100 80 198 0.9 12.2 0.00 0.00 0.00 8 1007.0
20260506231559 79 218 1.7 11.3 0.00 0.00 0.00 8 1006.9
20260506230058 80 168 4.3 12.2 0.00 0.00 0.00 8 1006.8
20260506224555 80 195 0.0 7.8 0.00 0.00 0.00 9 1006.9
20260506223056 80 212 0.0 10.4 0.00 0.00 0.00 10 1006.9
20260506221551 79 217 0.0 0.9 0.00 0.00 0.00 12 1007.0
20260506220050 79 94 0.0 0.9 0.00 0.00 0.00 13 1007.1
20260506214548 79 135 0.0 8.7 0.00 0.00 0.00 13 1007.2
20260506213102 78 85 0.0 6.1 0.00 0.00 0.00 13 1007.4
20260506211601 78 238 0.0 10.4 0.00 0.00 0.00 14 1007.8
20260506210041 77 117 0.0 1.7 0.00 0.00 0.00 15 1008.2
20260506204547 77 76 0.9 10.4 0.00 0.00 0.00 16 1008.5